Location: Babice
(50.3480°N, 22.9363°E)
Time: 12:46:09
(UTC+00:00)

USA 215 - Pass Details

Date: 14 July 2020
Orbit: 1102 x 1106 km, 123.0° (Epoch: 31 July)

Event Time Altitude Azimuth Distance (km) Brightness Sun altitude
Rises 01:30:59 0° 86° (E) 3,922 6.9 -8.1°
Reaches altitude 10° 01:33:32 10° 82° (E) 2,964 6.3 -7.9°
Maximum altitude 01:39:49 52° 8° (N) 1,345 4.2 -7.2°
Drops below altitude 10° 01:46:07 10° 295° (WNW) 2,965 5.3 -6.5°
Sets 01:48:39 0° 290° (WNW) 3,924 5.9 -6.2°
